Sisseton, SD

3:02 AM CDT on June 29, 2017 (GMT -0500)
Sisseton

Weather History for K8D3 - October, 2014

Change the Weather History Date:

Thursday, October 30, 2014

  Actual Average Record
Temperature  
Mean Temperature 33 °F 40 °F  
Max Temperature 42 °F 50 °F 78 °F (1950)
Min Temperature 23 °F 30 °F 9 °F (1984)
Degree Days  
Heating Degree Days 32 25  
Month to date heating degree days 468 557  
Since 1 July heating degree days 671 802  
Cooling Degree Days 0 0  
Month to date cooling degree days 0 0  
Year to date cooling degree days 442 523  
Moisture  
Dew Point 33 °F    
Average Humidity 82    
Maximum Humidity 100    
Minimum Humidity 64    
Precipitation  
Precipitation 0.00 in 0.05 in 1.11 in (1971)
Month to date precipitation 0.35 2.04  
Year to date precipitation 22.15 21.32  
Snow  
Snow 0.00 in - - ()
Month to date snowfall 0.0  
Since 1 July snowfall 0.0  
Snow Depth 0.00 in    
Sea Level Pressure  
Sea Level Pressure 30.26 in    
Wind  
Wind Speed 12 mph (NNE)    
Max Wind Speed 25 mph    
Max Gust Speed 36 mph    
T = Trace of Precipitation, MM = Missing Value Source: NWS Daily Summary

Daily Weather History Graph

Daily Weather History Graph

Search for Another Location

Airport or City:

Trip Planner

Search our weather history database for the weather conditions in past years. The results will help you decide how hot, cold, wet, or windy it might be!

Date:

Astronomy

Oct. 30, 2014 Rise Set
Actual Time 8:05 AM CDT 6:17 PM CDT
Civil Twilight 7:34 AM CDT 6:48 PM CDT
Nautical Twilight 6:59 AM CDT 7:23 PM CDT
Astronomical Twilight 6:24 AM CDT 7:57 PM CDT
Moon 2:11 PM CDT (10/30) No Moon Set
Length of Visible Light 11h 14m
Length of Day
10h 12m
Waxing Crescent, 45% of the Moon is Illuminated
Oct 30
Waxing Crescent
Oct 30
First Quarter
Nov 6
Full
Nov 14
Last Quarter
Nov 22
New

Hourly Weather History & Observations

Time (CDT) Temp. Windchill Dew Point Humidity Pressure Visibility Wind Dir Wind Speed Gust Speed Precip Events Conditions
12:56 AM 39.0 °F 35.7 °F 37.9 °F 96% 30.03 in - SSE 4.6 mph - 0.01 in   Unknown
1:56 AM 39.0 °F 35.7 °F 37.9 °F 96% 30.01 in - SSE 4.6 mph - N/A   Unknown
2:56 AM 39.0 °F 35.7 °F 39.0 °F 100% 30.01 in - South 4.6 mph - N/A   Unknown
3:56 AM 37.9 °F 32.7 °F 37.9 °F 100% 30.01 in - South 6.9 mph - N/A   Unknown
4:56 AM 37.9 °F 33.5 °F 37.9 °F 100% 30.01 in - South 5.8 mph - N/A   Unknown
5:56 AM 36.0 °F - 36.0 °F 100% 30.03 in - Calm Calm - N/A   Unknown
6:56 AM 37.0 °F - 37.0 °F 100% 30.05 in - Calm Calm - N/A   Unknown
7:56 AM 37.9 °F 35.5 °F 37.9 °F 100% 30.08 in - North 3.5 mph - N/A   Unknown
8:56 AM 42.1 °F 35.7 °F 39.9 °F 92% 30.10 in - NNW 11.5 mph - N/A   Unknown
9:56 AM 42.1 °F 34.2 °F 41.0 °F 96% 30.14 in - North 16.1 mph - N/A   Unknown
10:56 AM 39.9 °F 32.1 °F 39.9 °F 100% 30.19 in - NNE 13.8 mph - N/A   Unknown
11:56 AM 39.9 °F 31.4 °F 39.9 °F 100% 30.23 in - NNE 16.1 mph 24.2 mph N/A   Unknown
12:56 PM 42.1 °F 32.8 °F 37.0 °F 82% 30.26 in - NNE 21.9 mph 29.9 mph N/A   Unknown
1:56 PM 39.9 °F 29.7 °F 35.1 °F 83% 30.30 in - North 23.0 mph 31.1 mph N/A   Unknown
2:56 PM 39.0 °F 29.0 °F 33.1 °F 79% 30.32 in - North 20.7 mph 26.5 mph N/A   Unknown
3:56 PM 37.9 °F 27.9 °F 32.0 °F 79% 30.36 in - North 19.6 mph 26.5 mph N/A   Unknown
4:56 PM 37.0 °F 26.4 °F 30.0 °F 76% 30.39 in - North 20.7 mph 32.2 mph N/A   Unknown
5:56 PM 35.1 °F 24.1 °F 28.0 °F 76% 30.43 in - NNE 19.6 mph 26.5 mph N/A   Unknown
6:56 PM 34.0 °F 22.1 °F 25.0 °F 70% 30.48 in - NNE 21.9 mph 31.1 mph N/A   Unknown
7:56 PM 34.0 °F 23.8 °F 23.0 °F 64% 30.51 in - NNE 16.1 mph 35.7 mph N/A   Unknown
8:56 PM 28.9 °F 20.4 °F 24.1 °F 82% 30.51 in - NNW 9.2 mph - N/A   Unknown
9:56 PM 27.0 °F 17.3 °F 23.0 °F 85% 30.55 in - North 10.4 mph - N/A   Unknown
10:56 PM 26.1 °F 16.2 °F 21.9 °F 84% 30.58 in - North 10.4 mph - N/A   Unknown
11:56 PM 24.1 °F 13.7 °F 21.0 °F 88% 30.60 in - North 10.4 mph - N/A   Unknown